This demonstration page uses our WeatherBlox Daily Observations layout. Learn more.

Left ArrowRight Arrow

39.01783, -85.05884

Hourly Observations for October 21, 2015

Temp ( °F °C ) Dew Point ( °F °C ) Humidity (%) Winds ( mph kmh ) Pressure ( in mb ) Visibility ( mi km ) Precip ( " mm )
12:52 am 00:52 Mostly Clear 46 7.8 41 5 83 83 S 3 6 30.25 1024 10 16 N/A
1:52 am 01:52 Partly Cloudy 47 8.3 39 3.9 74 74 S 6 9 30.25 1024 10 16 N/A
2:52 am 02:52 Cloudy 48 8.9 42 5.6 80 80 S 7 11 30.25 1024 10 16 N/A
3:52 am 03:52 Cloudy 51 10.6 42 5.6 71 71 S 7 11 30.25 1024 10 16 N/A
4:52 am 04:52 Partly Cloudy 51 10.6 40 4.4 66 66 SSW 7 11 30.26 1025 10 16 N/A
5:52 am 05:52 Mostly Clear 48 8.9 39 3.9 71 71 SSW 6 9 30.28 1025 10 16 N/A
6:52 am 06:52 Mostly Clear 46 7.8 38 3.3 73 73 S 7 11 30.29 1026 10 16 N/A
7:52 am 07:52 Mostly Clear 48 8.9 39 3.9 71 71 SSW 9 15 30.30 1026 10 16 N/A
8:52 am 08:52 Sunny 51 10.6 41 5 69 69 S 9 15 30.32 1027 10 16 N/A
9:52 am 09:52 Sunny 56 13.3 43 6.1 62 62 SSW 8 13 30.32 1027 10 16 N/A
10:52 am 10:52 Sunny 61 16.1 44 6.7 54 54 SW 10 17 30.32 1027 10 16 N/A
11:52 am 11:52 Sunny 65 18.3 46 7.8 51 51 S 9 15 30.30 1026 10 16 N/A
12:52 pm 12:52 Mostly Sunny 69 20.6 48 8.9 47 47 SSW 9 15 30.29 1026 10 16 N/A
1:52 pm 13:52 Partly Cloudy 71 21.7 47 8.3 42 42 SSW 9 15 30.27 1025 10 16 N/A
2:52 pm 14:52 Partly Cloudy 74 23.3 47 8.3 38 38 SSW 8 13 30.24 1024 10 16 N/A
3:52 pm 15:52 Mostly Cloudy 74 23.3 47 8.3 38 38 SW 6 9 30.22 1023 10 16 N/A
4:52 pm 16:52 Mostly Cloudy 73 22.8 46 7.8 38 38 SSW 10 17 30.22 1024 10 16 N/A
5:52 pm 17:52 Partly Cloudy 73 22.8 46 7.8 38 38 SW 9 15 30.22 1023 10 16 N/A
6:52 pm 18:52 Partly Cloudy 68 20 46 7.8 45 45 SSW 5 7 30.23 1024 10 16 N/A
7:52 pm 19:52 Clear 62 16.7 48 8.9 60 60 S 3 6 30.23 1024 10 16 N/A
8:52 pm 20:52 Clear 61 16.1 47 8.3 60 60 S 6 9 30.22 1024 10 16 N/A
9:52 pm 21:52 Clear 59 15 48 8.9 67 67 S 7 11 30.22 1023 10 16 N/A
10:52 pm 22:52 Mostly Clear 58 14.4 48 8.9 70 70 S 6 9 30.22 1023 10 16 N/A
11:52 pm 23:52 Partly Cloudy 58 14.4 49 9.4 72 72 S 6 9 30.22 1023 10 16 N/A

Powered by AerisWeather